Terminal Aerodrome Forecast
Issued by NWS Mt. Holly, NJ

Home | Current Version | Previous Version | Text Only | Print | Product List | Glossary On
Versions: 1 2 3 4 5 6 7 8 9 10 11 12 13 14 15 16 17 18 19 20 21 22 23 24 25 26 27 28 29 30 31 32 33 34 35 36 37 38 39 40 41 42 43 44 45 46 47
000
FTUS41 KPHI 210300 AAA
TAFABE
TAF AMD
KABE 210303Z 2103/2124 VRB03KT P6SM SCT015
      TEMPO 2103/2106 BKN015
     FM210600 VRB02KT 4SM BR BKN020
     FM211000 VRB02KT 2SM BR BKN012
     FM211500 21005KT P6SM SCT025 BKN100
     FM211800 25007KT P6SM BKN250=

USA.gov is the U.S. government's official web portal to all federal, state and local government web resources and services.